Flag for U.S.A. Weather past 2 weeks in Stillwater, Minnesota, U.S.A.

Now
77 °F

Sunny.


Feels Like: 79 °F
Forecast: 60 / 80 °F
Wind: 7 mph from Northwest

Location: St. Paul Downtown Holman Field

Current Time: Jul 31, 2014 at 9:01:38 PM

Latest Report: Jul 31, 2014 at 7:53 PM


Visibility: 10 mi

Pressure: 29.97 "Hg

Humidity: 48%

Dew point: 56 °F

Location of StillwaterLocation

Historic Weather in Stillwater — Graph

°F

Stillwater temperature yesterday

Maximum temperature yesterday: 80 °F (at 3:53 PM)
Minimum temperature yesterday: 59 °F (at 3:53 AM)
Average temperature yesterday: 70 °F

Past Weeks' High & Low Weather Summary

 TemperatureHumidityPressure
High89 °F (Jul 21, 3:53 PM)97% (Jul 26, 5:53 AM)30.24 "Hg (Jul 26, 5:53 AM)
Low56 °F (Jul 17, 5:53 AM)36% (Jul 31, 12:53 PM)29.74 "Hg (Jul 26, 5:53 PM)
Average72 °F67%29.97 "Hg
* Reported Jul 16 7:53 PM — Jul 31 7:53 PM, Stillwater, Weather by CustomWeather, © 2014

Note: Actual official high and low records may vary slightly from our data, if they occured in-between our weather recording intervals... More about our weather records

Advertising

Stillwater weather history for previous 24 hours

 ConditionsComfort  
Time TempWeatherWind HumidityBarometerVisibility
7:53 PM
Jul 31
77 °FSunny.7 mph48%29.97 "Hg10 mi
6:53 PM80 °FPassing clouds.7 mph41%29.97 "Hg10 mi
5:53 PM81 °FSunny.10 mph38%29.97 "Hg10 mi
4:53 PM82 °FPassing clouds.8 mph38%29.98 "Hg10 mi
3:53 PM82 °FPassing clouds.6 mph38%29.98 "Hg10 mi
2:53 PM82 °FPartly sunny.12 mph37%29.99 "Hg10 mi
1:53 PM81 °FSunny.10 mph38%30.00 "Hg10 mi
12:53 PM79 °FSunny.8 mph36%30.00 "Hg10 mi
11:53 AM78 °FSunny.8 mph40%30.01 "Hg10 mi
10:53 AM76 °FSunny.7 mph50%30.02 "Hg10 mi
9:53 AM73 °FSunny.6 mph55%30.02 "Hg10 mi
8:53 AM69 °FSunny.5 mph70%30.03 "Hg10 mi
7:53 AM65 °FSunny.6 mph81%30.03 "Hg10 mi
6:53 AM62 °FClear.3 mph86%30.02 "Hg8 mi
5:53 AM61 °FClear.3 mph90%30.02 "Hg10 mi
4:53 AM61 °FClear.No wind93%30.01 "Hg8 mi
3:53 AM63 °FClear.No wind87%30.01 "Hg10 mi
2:53 AM64 °FClear.No wind84%30.01 "Hg10 mi
1:53 AM65 °FClear.No wind85%30.02 "Hg10 mi
12:53 AM66 °FClear.No wind75%30.02 "Hg10 mi
11:53 PM
Jul 30
67 °FClear.No wind68%30.02 "Hg10 mi
10:53 PM69 °FClear.3 mph63%30.02 "Hg10 mi
9:53 PM71 °FClear.5 mph59%30.02 "Hg10 mi
Weather by CustomWeather, © 2014

See weather overviewHow to use our weather pages